This demonstration page uses our WeatherBlox Daily Observations layout. Learn more.

36.17497, -115.13722

Hourly Observations for May 15, 2015

Temp ( °F °C ) Dew Point ( °F °C ) Humidity (%) Winds ( mph kmh ) Pressure ( in mb ) Visibility ( mi km ) Precip ( " mm )
12:53 am 00:53 Cloudy 57 13.9 32 0 39 39 SSW 12 19 29.76 1008 10 16.0934 0 0
1:53 am 01:53 Mostly Clear 56 13.3 32 0 40 40 SSW 12 19 29.75 1007 10 16.0934 0 0
2:53 am 02:53 Clear 56 13.3 33 0.6 42 42 SW 17 28 29.74 1007 10 16.0934 0 0
3:53 am 03:53 Mostly Cloudy 56 13.3 33 0.6 42 42 SW 22 35 29.74 1007 10 16.0934 0 0
4:40 am 04:40 Cloudy 55 13 34 1 44 44 S 16 26 29.71 1006 10 16.0934 0 0
4:53 am 04:53 Cloudy 55 12.8 33 0.6 44 44 SSW 18 30 29.75 1007 10 16.0934 0 0
5:53 am 05:53 Mostly Cloudy 54 12.2 33 0.6 45 45 S 14 22 29.78 1008 10 16.0934 0 0
6:53 am 06:53 Sunny 54 12.2 33 0.6 45 45 SW 13 20 29.81 1009 10 16.0934 0 0
7:53 am 07:53 Mostly Sunny 57 13.9 32 0 39 39 SSW 12 19 29.82 1010 10 16.0934 0 0
8:53 am 08:53 Sunny 60 15.6 31 -0.6 33 33 S 18 30 29.82 1010 10 16.0934 0 0
9:53 am 09:53 Sunny 61 16.1 29 -1.7 30 30 S 14 22 29.83 1010 10 16.0934 0 0
10:53 am 10:53 Sunny 62 16.7 28 -2.2 28 28 VRB 3 6 29.82 1010 10 16.0934 0 0
11:53 am 11:53 Mostly Sunny 66 18.9 27 -2.8 23 23 S 13 20 29.8 1009 10 16.0934 0 0
12:53 pm 12:53 Mostly Sunny 67 19.4 24 -4.4 20 20 S 14 22 29.78 1009 10 16.0934 0 0
1:53 pm 13:53 Mostly Sunny 68 20 22 -5.6 17 17 S 8 13 29.76 1008 10 16.0934 0 0
2:53 pm 14:53 Mostly Cloudy 67 19.4 23 -5 19 19 SSE 9 15 29.75 1007 10 16.0934 0 0
3:53 pm 15:53 Mostly Sunny 68 20 20 -6.7 16 16 S 14 22 29.73 1007 10 16.0934 0 0
4:53 pm 16:53 Sunny 69 20.6 18 -7.8 14 14 SE 5 7 29.72 1007 10 16.0934 0 0
5:53 pm 17:53 Mostly Sunny 68 20 33 0.6 27 27 SSE 17 28 29.72 1007 10 16.0934 0 0
6:53 pm 18:53 Sunny 65 18.3 35 1.7 33 33 SSE 15 24 29.73 1007 10 16.0934 0 0
7:53 pm 19:53 Clear 63 17.2 37 2.8 38 38 SE 14 22 29.75 1008 10 16.0934 0 0
8:53 pm 20:53 Mostly Cloudy 60 15.6 39 3.9 46 46 ESE 13 20 29.78 1008 10 16.0934 0 0
9:53 pm 21:53 Clear 58 14.4 39 3.9 50 50 ESE 13 20 29.8 1009 10 16.0934 0 0
10:53 pm 22:53 Clear 57 13.9 38 3.3 49 49 E 6 9 29.8 1009 10 16.0934 0 0
11:53 pm 23:53 Clear 57 13.9 38 3.3 49 49 Calm 29.8 1009 10 16.0934 0 0

Powered by AerisWeather